[[{"header":{"parameterUnit":"m.s-1","parameterCategory":1,"la1":30.2991,"la2":30.254,"lo1":-89.0895,"lo2":-89.0444,"dy":0.0017,"dx":0.0017,"nx":28,"ny":28,"refTime":"2023-08-14T21:00:00:Z","depth":0,"parameterNumber":2,"parameterNumberName":"U-component_of_WINDS"},"data":[0,0,0,0,0,0,0,0,0,0,0,0,0,0,0,0,0,0,0,0,0,0,0,0,0,0,0,0,0,0,0,0,0,0,0,0,0,0,0,0,0,0,0,0,0,0,0,0,0,0,0,0,0,0,0,0,0,0,4.6612,4.6613,0,4.675,4.6752,4.6754,4.6708,4.6705,4.6702,4.6699,4.6842,4.6849,4.6855,0,0,0,0,0,0,0,0,0,0,0,0,0,4.6307,4.6313,4.6611,4.6613,4.6615,4.675,4.6752,4.6754,4.6709,4.6705,4.6701,4.6698,4.684,4.6848,4.6856,0,0,0,0,0,0,0,0,0,0,0,0,0,4.6442,4.6315,4.6611,4.6609,4.661,4.675,4.6752,4.6754,4.671,4.6705,4.6701,4.6696,4.6838,4.6847,4.6857,4.7008,0,0,4.6887,4.6891,0,0,0,0,0,0,0,0,4.6435,4.6453,4.6607,4.6609,4.6611,4.6707,4.6697,4.6839,4.6711,4.6672,4.6699,4.6694,4.6801,4.6814,4.685,4.7015,4.7021,4.6888,4.6894,4.6898,4.6901,0,0,0,0,0,0,0,4.6425,4.6447,4.6666,4.661,4.6612,4.6601,4.6615,4.6724,4.676,4.6675,4.6672,4.6689,4.6801,4.684,4.6853,4.7023,4.6888,4.6897,4.6903,4.6906,4.7318,4.7323,0,0,0,0,0,0,4.6415,4.644,4.6662,4.6671,4.651,4.661,4.6626,4.6681,4.6759,4.6766,4.6692,4.6686,4.6825,4.6841,4.6857,4.7039,4.6898,4.6907,4.6913,4.7313,4.7319,4.7324,0,0,0,0,0,0,4.6409,4.6435,4.6656,4.6554,4.6582,4.662,4.6682,4.6686,4.6725,4.6772,4.6778,4.6726,4.6823,4.6844,4.6971,4.7043,4.6912,4.6921,4.7307,4.7315,4.7322,4.7403,0,0,0,0,0,0,4.64,4.6433,4.6491,4.6556,4.6587,4.6767,4.6687,4.6692,4.6742,4.6735,4.6805,4.6812,4.6821,4.6956,4.698,4.7054,4.6929,4.7301,4.7311,4.7319,4.7394,4.7412,4.7428,0,0,0,0,0,4.6389,4.6508,4.6494,4.6521,4.666,4.6772,4.6789,4.6797,4.6748,4.6806,4.6836,4.681,4.7031,4.6969,4.6997,4.7074,4.7296,4.7308,4.7319,4.7386,4.7408,4.7427,0,0,0,0,0,0,4.6451,4.6517,4.6502,4.6645,4.6703,4.6764,4.6837,4.682,4.6893,4.6884,4.689,4.6906,4.7036,4.7068,4.6998,4.7224,4.7157,4.7174,4.7198,4.722,4.7237,4.7226,4.6937,0,0,0,0,0,4.6481,4.6566,4.6619,4.6741,4.677,4.6799,4.6848,4.6848,4.6909,4.6933,4.6972,4.7032,4.7115,4.7169,4.7248,4.7398,4.7413,4.7465,4.7482,4.7496,4.751,4.7591,4.7615,4.7361,4.7361,4.7361,0,0,4.6545,4.6591,4.6644,4.6754,4.6799,4.6887,4.682,4.6916,4.6981,4.6948,4.7069,4.7101,4.7168,4.7307,4.737,4.7337,4.7584,4.751,4.7521,4.7528,4.7605,4.7629,4.7651,4.7369,4.7368,4.7366,0,0,4.6705,4.6749,4.6854,4.6901,4.6969,4.6988,4.7013,4.7077,4.7096,4.7219,4.7195,4.7273,4.7416,4.7464,4.7508,4.7686,4.7664,4.7712,4.78,4.7879,4.7899,4.7917,4.798,4.8002,4.7726,4.7727,4.7727,0,4.6775,4.6906,4.6911,4.7009,4.7057,4.7031,4.7138,4.7183,4.7275,4.7309,4.7271,4.7449,4.7493,4.7642,4.7686,4.7722,4.7751,4.7704,4.7896,4.7914,4.793,4.799,4.8014,4.7732,4.7731,4.7731,4.773,0,4.6988,4.7079,4.7156,4.7245,4.7302,4.7404,4.7425,4.7483,4.7479,4.7501,4.7626,4.7677,4.7766,4.7801,4.7799,4.7951,4.7928,4.7894,4.7825,4.796,4.8016,4.8039,4.7739,4.7738,4.7736,4.7735,0,0,4.719,4.728,4.7308,4.7348,4.7422,4.7492,4.7593,4.7679,4.7728,4.7793,4.7877,4.7998,4.7966,4.8016,4.8018,4.8087,4.8225,4.8044,4.8045,4.8075,4.8395,4.842,4.8446,4.8211,4.8215,4.8219,4.8389,0,4.7356,4.7532,4.754,4.7701,4.7785,4.7761,4.7849,4.7904,4.7928,4.8002,4.8029,4.8114,4.8066,4.8095,4.8163,4.8193,4.8289,4.8181,4.8289,4.8293,4.8272,4.8476,4.8503,4.8661,4.8411,4.8415,4.8417,0,4.7572,4.7642,4.7811,4.7873,4.7908,4.7987,4.8066,4.8138,4.82,4.8212,4.8268,4.826,4.8363,4.8292,4.8434,4.8361,4.8405,4.8427,4.8433,4.8442,4.8362,4.849,4.8711,4.8735,4.8452,4.845,4.8447,0,4.7702,4.7839,4.7957,4.7992,4.8067,4.8122,4.8156,4.8213,4.8265,4.8334,4.8368,4.8449,4.8493,4.8556,4.857,4.8517,4.8712,4.8642,4.8725,4.8724,4.8766,4.8763,4.8996,4.8796,4.8796,4.8796,4.8795,0,4.7885,4.7989,4.8016,4.8089,4.8205,4.8213,4.8328,4.8358,4.8409,4.8487,4.8472,4.8546,4.8561,4.8638,4.865,4.8765,4.8785,4.8798,4.88,4.8799,4.8797,4.8827,4.8816,4.8802,4.8801,4.8799,4.8798,0,4.8049,4.8072,4.8199,4.8259,4.8277,4.836,4.8411,4.8481,4.8503,4.8602,4.8626,4.866,4.875,4.8771,4.8878,4.8886,4.9022,4.9013,4.9001,4.9,4.908,4.9072,4.9341,4.9376,4.9154,4.9156,4.9158,0,4.8164,4.8244,4.8313,4.8364,4.84,4.8483,4.8535,4.8546,4.8601,4.8677,4.8737,4.8825,4.8896,4.9041,4.9075,4.9157,4.915,4.9238,4.9162,4.9158,4.915,4.9145,4.9152,4.9253,4.9255,4.9257,4.9258,0,4.8366,4.8373,4.8448,4.8528,4.859,4.8654,4.8714,4.8757,4.8776,4.8839,4.893,4.8985,4.9094,4.9181,4.9263,4.9298,4.9282,4.9282,4.9305,4.9305,4.9294,4.93,4.9039,4.9276,4.9274,4.9273,4.9272,4.9271,4.8509,4.8578,4.8637,4.8721,4.8768,4.8824,4.8892,4.8923,4.8999,4.9088,4.909,4.9189,4.9249,4.9357,4.9397,4.9475,4.9447,4.9481,4.9489,4.9497,4.9504,4.9282,4.949,4.9489,4.9489,4.9489,4.9488,0,4.8709,4.8745,4.8823,4.8907,4.8974,4.8953,4.9018,4.9075,4.9163,4.9219,4.9289,4.9394,4.9478,4.952,4.9603,4.9658,4.9652,4.9679,4.9675,4.9683,4.9524,4.9495,4.9682,4.9682,4.9682,4.9682,4.9682,4.9682,4.8821,4.8936,4.895,4.9089,4.9124,4.9221,4.926,4.9312,4.9357,4.9475,4.9545,4.9571,4.9622,4.9709,4.9785,4.9795,4.9826,4.9857,4.9863,4.9714,4.9694,4.9675,4.9648,4.9864,4.9864,5.0015,5.0016,5.0017]},{"header":{"parameterUnit":"m.s-1","parameterCategory":1,"la1":30.2991,"la2":30.254,"lo1":-89.0895,"lo2":-89.0444,"dy":0.0017,"dx":0.0017,"nx":28,"ny":28,"refTime":"2023-08-14T21:00:00:Z","depth":0,"parameterNumber":3,"parameterNumberName":"V-component_of_WINDS"},"data":[0,0,0,0,0,0,0,0,0,0,0,0,0,0,0,0,0,0,0,0,0,0,0,0,0,0,0,0,0,0,0,0,0,0,0,0,0,0,0,0,0,0,0,0,0,0,0,0,0,0,0,0,0,0,0,0,0,0,0.2819,0.282,0,0.2863,0.2864,0.2864,0.2867,0.2866,0.2866,0.2865,0.2911,0.2913,0.2915,0,0,0,0,0,0,0,0,0,0,0,0,0,0.2739,0.274,0.2819,0.282,0.282,0.2863,0.2864,0.2864,0.2867,0.2866,0.2866,0.2865,0.2911,0.2913,0.2915,0,0,0,0,0,0,0,0,0,0,0,0,0,0.2777,0.274,0.2819,0.2827,0.2828,0.2863,0.2864,0.2865,0.2867,0.2866,0.2865,0.2865,0.291,0.2913,0.2915,0.2946,0,0,0.2923,0.2924,0,0,0,0,0,0,0,0,0.2775,0.278,0.2825,0.2826,0.2828,0.2859,0.2852,0.2892,0.2867,0.2852,0.2865,0.2864,0.2895,0.2898,0.2908,0.2948,0.295,0.2923,0.2925,0.2926,0.2927,0,0,0,0,0,0,0,0.2772,0.2778,0.2837,0.2826,0.2827,0.2828,0.2833,0.286,0.2877,0.2853,0.2854,0.2859,0.2895,0.2906,0.2909,0.2951,0.2923,0.2926,0.2927,0.2928,0.3019,0.302,0,0,0,0,0,0,0.2768,0.2776,0.2835,0.2838,0.2799,0.283,0.2835,0.285,0.2877,0.288,0.2859,0.2859,0.2902,0.2906,0.2911,0.295,0.2926,0.2928,0.293,0.3018,0.3019,0.302,0,0,0,0,0,0,0.2766,0.2773,0.2834,0.2807,0.2815,0.2832,0.2848,0.2851,0.2862,0.2881,0.2885,0.2867,0.2901,0.2908,0.2937,0.2951,0.2929,0.2932,0.3017,0.3019,0.302,0.3027,0,0,0,0,0,0,0.2764,0.2773,0.2784,0.2807,0.2816,0.2859,0.2849,0.2852,0.2866,0.2865,0.2889,0.2893,0.2901,0.2934,0.294,0.2954,0.2934,0.3016,0.3018,0.3019,0.3026,0.3028,0.3031,0,0,0,0,0,0.2761,0.2785,0.2785,0.2792,0.2831,0.286,0.2865,0.2874,0.2867,0.2879,0.2892,0.2892,0.2948,0.2937,0.2944,0.2959,0.3015,0.3017,0.3019,0.3024,0.3028,0.3031,0,0,0,0,0,0,0.2764,0.2788,0.2789,0.282,0.2838,0.286,0.2876,0.2877,0.2897,0.2896,0.2907,0.2912,0.2942,0.2954,0.294,0.2991,0.2981,0.2985,0.2983,0.2986,0.2988,0.2986,0.2936,0,0,0,0,0,0.2768,0.2789,0.2809,0.2835,0.2844,0.2858,0.2871,0.2876,0.2895,0.2903,0.2918,0.2936,0.2958,0.2972,0.2994,0.3027,0.3032,0.3041,0.3043,0.3045,0.3049,0.3067,0.3072,0.3027,0.3027,0.3027,0,0,0.2777,0.2793,0.2806,0.2836,0.285,0.2872,0.2865,0.2888,0.2904,0.2906,0.2936,0.2947,0.2969,0.3,0.3015,0.3011,0.3062,0.3048,0.3049,0.3052,0.307,0.3074,0.3078,0.3028,0.3028,0.3028,0,0,0.2805,0.2819,0.2842,0.2857,0.2878,0.2887,0.2893,0.2915,0.2922,0.2952,0.2954,0.2973,0.3011,0.3026,0.3039,0.3072,0.3073,0.3078,0.3092,0.311,0.3114,0.3117,0.313,0.3134,0.3081,0.3081,0.3081,0,0.2814,0.2846,0.2854,0.2878,0.2891,0.2893,0.2918,0.2931,0.2959,0.2968,0.2963,0.301,0.3024,0.306,0.3068,0.3077,0.3085,0.3076,0.3113,0.3116,0.3119,0.3131,0.3136,0.3082,0.3082,0.3082,0.3082,0,0.2857,0.2879,0.2895,0.2922,0.2937,0.296,0.2972,0.2987,0.299,0.3,0.303,0.3048,0.3073,0.3081,0.3085,0.3117,0.3114,0.311,0.3101,0.3124,0.3135,0.314,0.3083,0.3083,0.3082,0.3082,0,0,0.2889,0.2918,0.2924,0.2936,0.296,0.2977,0.3001,0.3025,0.3037,0.3056,0.3076,0.3108,0.3104,0.3119,0.3124,0.314,0.3166,0.3135,0.3135,0.3141,0.3203,0.3206,0.3212,0.3166,0.3167,0.3168,0.3202,0,0.292,0.2962,0.297,0.3006,0.3027,0.3029,0.305,0.3067,0.3076,0.3096,0.3107,0.3129,0.3123,0.3131,0.3147,0.3159,0.3179,0.3157,0.3186,0.3187,0.3182,0.3218,0.3221,0.3252,0.3206,0.3207,0.3207,0,0.2962,0.2982,0.302,0.3041,0.305,0.3069,0.3091,0.3109,0.3128,0.3134,0.315,0.3154,0.3179,0.3167,0.3202,0.3187,0.3199,0.3207,0.3208,0.3212,0.32,0.3224,0.3262,0.3267,0.3214,0.3214,0.3213,0,0.2983,0.3018,0.3046,0.3056,0.3081,0.3094,0.3105,0.3123,0.3137,0.3156,0.3166,0.3188,0.32,0.3218,0.3227,0.3218,0.3262,0.3251,0.3268,0.3268,0.3278,0.3278,0.3321,0.3284,0.3284,0.3284,0.3284,0,0.3018,0.3042,0.3056,0.3073,0.31,0.3108,0.3135,0.3145,0.3162,0.3181,0.3184,0.3202,0.3214,0.3234,0.3241,0.3269,0.3275,0.3281,0.3283,0.3281,0.3281,0.329,0.3289,0.3285,0.3285,0.3285,0.3284,0,0.3046,0.3056,0.3087,0.3107,0.3113,0.3132,0.315,0.3167,0.3176,0.3201,0.3207,0.3222,0.3245,0.3256,0.3286,0.3291,0.3323,0.3323,0.3317,0.3318,0.3335,0.3333,0.3386,0.3394,0.3352,0.3352,0.3352,0,0.3068,0.3086,0.3108,0.3122,0.3133,0.3154,0.3168,0.3177,0.3191,0.3214,0.3228,0.3252,0.3272,0.331,0.3323,0.3346,0.3347,0.3364,0.3351,0.3348,0.3348,0.3348,0.335,0.3367,0.3367,0.3368,0.3368,0,0.3106,0.311,0.313,0.3152,0.3169,0.3186,0.3204,0.3214,0.3226,0.3242,0.3266,0.3281,0.3311,0.3335,0.3358,0.337,0.3371,0.3372,0.3377,0.3376,0.3372,0.3376,0.3325,0.3371,0.3371,0.337,0.337,0.337,0.3133,0.3149,0.3167,0.319,0.3203,0.3219,0.3237,0.3248,0.3268,0.3293,0.3296,0.3322,0.3341,0.3372,0.3384,0.3405,0.3401,0.3409,0.3411,0.3413,0.3414,0.3368,0.3409,0.3409,0.3409,0.3409,0.3409,0,0.3172,0.3184,0.3204,0.3228,0.3245,0.3244,0.3263,0.3278,0.3301,0.3317,0.3336,0.3364,0.3387,0.3402,0.3425,0.3439,0.344,0.3445,0.3445,0.3447,0.3416,0.3409,0.3444,0.3444,0.3444,0.3444,0.3444,0.3444,0.3194,0.3223,0.3229,0.3264,0.3275,0.3301,0.3312,0.3327,0.334,0.3371,0.339,0.3399,0.3416,0.344,0.3461,0.3465,0.3474,0.3479,0.3483,0.3453,0.345,0.3446,0.344,0.348,0.348,0.3513,0.3513,0.3513]}]]